When you browse on this site, cookies collect data to enhance your experience and personalize the content and advertising you see.
Visit our Privacy Policy to learn more. By continuing to use the site, you agree to this use of cookies and data.

Stündliche Wetter Bad Bleiberg

Heute, 14 Juli, Dienstag

Zeit Temperatur Niederschläge Wind Luftdruck Luftfeuchtigkeit
00:00 +10°C° 0 mm 0 m/S 699 mmHg 89%
01:00 +11°C° 0 mm 1 m/S 699 mmHg 90%
02:00 +10°C° 0 mm 0 m/S 699 mmHg 90%
03:00 +9°C° 0 mm 0 m/S 699 mmHg 91%
04:00 +9°C° 0 mm 0 m/S 698 mmHg 91%
05:00 +11°C° 0 mm 0 m/S 698 mmHg 86%
06:00 +13°C° 0 mm 1 m/S 699 mmHg 81%
07:00 +15°C° 0 mm 1 m/S 699 mmHg 75%
08:00 +18°C° 0 mm 1 m/S 699 mmHg 68%
09:00 +19°C° 0 mm 1 m/S 699 mmHg 61%
10:00 +21°C° 0 mm 1 m/S 699 mmHg 54%
11:00 +21°C° 0 mm 2 m/S 699 mmHg 51%
12:00 +23°C° 0 mm 2 m/S 699 mmHg 48%
13:00 +24°C° 0 mm 2 m/S 698 mmHg 45%
14:00 +23°C° 0.1 mm 2 m/S 698 mmHg 48%
15:00 +23°C° 0.1 mm 2 m/S 698 mmHg 50%
16:00 +23°C° 0.1 mm 2 m/S 697 mmHg 53%
17:00 +21°C° 0.1 mm 1 m/S 697 mmHg 62%
18:00 +20°C° 0.1 mm 1 m/S 697 mmHg 71%
19:00 +18°C° 0.1 mm 1 m/S 697 mmHg 80%
20:00 +16°C° 0 mm 1 m/S 697 mmHg 83%
21:00 +15°C° 0 mm 1 m/S 697 mmHg 85%
22:00 +13°C° 0 mm 0 m/S 697 mmHg 88%
23:00 +13°C° 0 mm 0 m/S 697 mmHg 88%

Morgen, 15 Juli, Mittwoch

Zeit Temperatur Niederschläge Wind Luftdruck Luftfeuchtigkeit
00:00 +12°C° 0 mm 0 m/S 697 mmHg 88%
01:00 +12°C° 0 mm 0 m/S 697 mmHg 87%
02:00 +12°C° 0 mm 0 m/S 697 mmHg 88%
03:00 +12°C° 0 mm 0 m/S 697 mmHg 89%
04:00 +12°C° 0 mm 0 m/S 696 mmHg 90%
05:00 +13°C° 0 mm 0 m/S 697 mmHg 87%
06:00 +14°C° 0 mm 0 m/S 697 mmHg 84%
07:00 +15°C° 0 mm 0 m/S 697 mmHg 80%
08:00 +17°C° 0.2 mm 0 m/S 698 mmHg 76%
09:00 +18°C° 0.2 mm 0 m/S 698 mmHg 71%
10:00 +20°C° 0.2 mm 0 m/S 698 mmHg 66%
11:00 +22°C° 0.5 mm 1 m/S 698 mmHg 68%
12:00 +22°C° 0.5 mm 1 m/S 698 mmHg 69%
13:00 +22°C° 0.5 mm 1 m/S 697 mmHg 71%
14:00 +22°C° 0.9 mm 1 m/S 697 mmHg 73%
15:00 +22°C° 0.9 mm 1 m/S 697 mmHg 75%
16:00 +21°C° 0.9 mm 1 m/S 697 mmHg 77%
17:00 +20°C° 0.6 mm 1 m/S 697 mmHg 82%
18:00 +19°C° 0.6 mm 1 m/S 697 mmHg 86%
19:00 +18°C° 0.6 mm 1 m/S 697 mmHg 91%
20:00 +16°C° 0.3 mm 1 m/S 697 mmHg 92%
21:00 +15°C° 0.3 mm 1 m/S 697 mmHg 92%
22:00 +14°C° 0.3 mm 1 m/S 698 mmHg 93%
23:00 +14°C° 0.1 mm 1 m/S 698 mmHg 93%

übermorgen, 16 Juli, Donnerstag

Zeit Temperatur Niederschläge Wind Luftdruck Luftfeuchtigkeit
00:00 +14°C° 0.1 mm 1 m/S 698 mmHg 93%
01:00 +14°C° 0.1 mm 1 m/S 698 mmHg 94%
02:00 +13°C° 0 mm 1 m/S 697 mmHg 94%
03:00 +13°C° 0 mm 1 m/S 697 mmHg 94%
04:00 +12°C° 0 mm 1 m/S 697 mmHg 94%
05:00 +13°C° 0 mm 1 m/S 697 mmHg 92%
06:00 +14°C° 0 mm 1 m/S 698 mmHg 89%
07:00 +15°C° 0 mm 0 m/S 698 mmHg 87%
08:00 +16°C° 0.1 mm 0 m/S 699 mmHg 82%
09:00 +19°C° 0.1 mm 1 m/S 699 mmHg 76%
10:00 +21°C° 0.1 mm 1 m/S 699 mmHg 71%
11:00 +21°C° 0.5 mm 1 m/S 699 mmHg 71%
12:00 +22°C° 0.5 mm 1 m/S 699 mmHg 71%
13:00 +23°C° 0.5 mm 1 m/S 699 mmHg 72%
14:00 +22°C° 0.8 mm 1 m/S 699 mmHg 76%
15:00 +21°C° 0.8 mm 1 m/S 699 mmHg 80%
16:00 +21°C° 0.8 mm 1 m/S 698 mmHg 85%
17:00 +20°C° 0.5 mm 1 m/S 698 mmHg 87%
18:00 +19°C° 0.5 mm 1 m/S 698 mmHg 90%
19:00 +18°C° 0.5 mm 1 m/S 698 mmHg 93%
20:00 +16°C° 0.3 mm 1 m/S 699 mmHg 94%
21:00 +15°C° 0.3 mm 1 m/S 699 mmHg 95%
22:00 +15°C° 0.3 mm 1 m/S 699 mmHg 95%
23:00 +15°C° 0.3 mm 1 m/S 699 mmHg 95%

17 Juli, Freitag

Zeit Temperatur Niederschläge Wind Luftdruck Luftfeuchtigkeit
00:00 +15°C° 0.3 mm 1 m/S 699 mmHg 95%
01:00 +14°C° 0.3 mm 1 m/S 699 mmHg 95%
02:00 +14°C° 0.4 mm 1 m/S 699 mmHg 95%
03:00 +14°C° 0.4 mm 1 m/S 698 mmHg 95%
04:00 +13°C° 0.4 mm 1 m/S 698 mmHg 96%
05:00 +14°C° 0 mm 1 m/S 698 mmHg 95%
06:00 +15°C° 0 mm 1 m/S 699 mmHg 93%
07:00 +15°C° 0 mm 1 m/S 699 mmHg 92%
08:00 +18°C° 0.2 mm 1 m/S 699 mmHg 85%
09:00 +19°C° 0.2 mm 1 m/S 700 mmHg 79%
10:00 +20°C° 0.2 mm 1 m/S 700 mmHg 72%
11:00 +22°C° 0.3 mm 1 m/S 700 mmHg 67%
12:00 +23°C° 0.3 mm 1 m/S 700 mmHg 62%
13:00 +24°C° 0.3 mm 1 m/S 700 mmHg 57%
14:00 +24°C° 0.3 mm 1 m/S 700 mmHg 59%
15:00 +23°C° 0.3 mm 1 m/S 699 mmHg 62%
16:00 +23°C° 0.3 mm 1 m/S 699 mmHg 64%
17:00 +22°C° 0.3 mm 1 m/S 699 mmHg 71%
18:00 +20°C° 0.3 mm 1 m/S 699 mmHg 78%
19:00 +17°C° 0.3 mm 0 m/S 699 mmHg 85%
20:00 +18°C° 0.1 mm 1 m/S 699 mmHg 87%
21:00 +15°C° 0.1 mm 1 m/S 699 mmHg 89%
22:00 +13°C° 0.1 mm 1 m/S 699 mmHg 91%
23:00 +13°C° 0 mm 1 m/S 699 mmHg 91%

18 Juli, Samstag

Zeit Temperatur Niederschläge Wind Luftdruck Luftfeuchtigkeit
00:00 +13°C° 0 mm 1 m/S 699 mmHg 92%
01:00 +12°C° 0 mm 1 m/S 699 mmHg 92%
02:00 +12°C° 0 mm 1 m/S 699 mmHg 92%
03:00 +12°C° 0 mm 1 m/S 699 mmHg 92%
04:00 +11°C° 0 mm 1 m/S 699 mmHg 92%
05:00 +13°C° 0 mm 1 m/S 699 mmHg 89%
06:00 +14°C° 0 mm 1 m/S 699 mmHg 86%
07:00 +16°C° 0 mm 1 m/S 699 mmHg 83%
08:00 +19°C° 0 mm 1 m/S 700 mmHg 72%
09:00 +22°C° 0 mm 1 m/S 700 mmHg 60%
10:00 +25°C° 0 mm 1 m/S 700 mmHg 49%
11:00 +25°C° 0 mm 1 m/S 700 mmHg 47%
12:00 +26°C° 0 mm 1 m/S 700 mmHg 46%
13:00 +27°C° 0 mm 1 m/S 700 mmHg 44%
14:00 +26°C° 0.1 mm 1 m/S 700 mmHg 47%
15:00 +26°C° 0.1 mm 1 m/S 699 mmHg 50%
16:00 +25°C° 0.1 mm 1 m/S 699 mmHg 53%
17:00 +23°C° 0.3 mm 1 m/S 699 mmHg 64%
18:00 +22°C° 0.3 mm 1 m/S 699 mmHg 76%
19:00 +20°C° 0.3 mm 1 m/S 699 mmHg 87%
20:00 +18°C° 0.1 mm 1 m/S 699 mmHg 89%
21:00 +16°C° 0.1 mm 1 m/S 699 mmHg 90%
22:00 +15°C° 0.1 mm 1 m/S 699 mmHg 92%
23:00 +15°C° 0 mm 1 m/S 699 mmHg 92%

19 Juli, Sonntag

Zeit Temperatur Niederschläge Wind Luftdruck Luftfeuchtigkeit
00:00 +14°C° 0 mm 1 m/S 699 mmHg 92%
01:00 +14°C° 0 mm 1 m/S 699 mmHg 92%
02:00 +14°C° 0 mm 1 m/S 699 mmHg 92%
03:00 +14°C° 0 mm 1 m/S 699 mmHg 93%
04:00 +13°C° 0 mm 1 m/S 699 mmHg 93%
05:00 +15°C° 0 mm 1 m/S 699 mmHg 91%
06:00 +16°C° 0 mm 1 m/S 699 mmHg 88%
07:00 +16°C° 0 mm 0 m/S 699 mmHg 85%
08:00 +21°C° 0 mm 1 m/S 700 mmHg 75%
09:00 +23°C° 0 mm 1 m/S 700 mmHg 65%
10:00 +25°C° 0 mm 1 m/S 700 mmHg 55%
11:00 +26°C° 0.1 mm 1 m/S 700 mmHg 54%
12:00 +26°C° 0.1 mm 1 m/S 700 mmHg 54%
13:00 +27°C° 0.1 mm 1 m/S 700 mmHg 53%
14:00 +27°C° 0.2 mm 1 m/S 700 mmHg 56%
15:00 +26°C° 0.2 mm 1 m/S 700 mmHg 58%
16:00 +26°C° 0.2 mm 1 m/S 699 mmHg 61%
17:00 +24°C° 0.3 mm 1 m/S 699 mmHg 70%
18:00 +23°C° 0.3 mm 1 m/S 699 mmHg 79%
19:00 +19°C° 0.3 mm 0 m/S 699 mmHg 87%
20:00 +20°C° 0 mm 1 m/S 699 mmHg 89%
21:00 +19°C° 0 mm 1 m/S 699 mmHg 90%
22:00 +16°C° 0 mm 1 m/S 700 mmHg 92%
23:00 +16°C° 0 mm 1 m/S 700 mmHg 91%
Mehr zeigen